• In Italy
  • List of Countries
  • For 7 days
  • Water Temperature
  • Satellite Maps
  • Weather Map
  • Weather Widgets
  • user-avatar
    Login

    Hourly Weather Oran

    Today, 21 August, Tuesday

    Time Temperature Precipitation Wind Pressure Humidity
    00:00 +28°C° 0 mm 4 mps 751 mmHg 63%
    01:00 +28°C° 0 mm 4 mps 751 mmHg 65%
    02:00 +28°C° 0 mm 4 mps 751 mmHg 68%
    03:00 +27°C° 0 mm 3 mps 751 mmHg 70%
    04:00 +27°C° 0 mm 3 mps 751 mmHg 71%
    05:00 +27°C° 0 mm 3 mps 751 mmHg 73%
    06:00 +27°C° 0 mm 3 mps 751 mmHg 74%
    07:00 +28°C° 0 mm 3 mps 751 mmHg 67%
    08:00 +29°C° 0 mm 3 mps 752 mmHg 61%
    09:00 +30°C° 0 mm 3 mps 752 mmHg 54%
    10:00 +31°C° 0 mm 3 mps 751 mmHg 48%
    11:00 +33°C° 0 mm 4 mps 751 mmHg 42%
    12:00 +35°C° 0 mm 4 mps 751 mmHg 36%
    13:00 +35°C° 0 mm 5 mps 751 mmHg 35%
    14:00 +36°C° 0 mm 6 mps 750 mmHg 34%
    15:00 +36°C° 0 mm 7 mps 750 mmHg 32%
    16:00 +35°C° 0 mm 7 mps 750 mmHg 35%
    17:00 +35°C° 0 mm 7 mps 750 mmHg 38%
    18:00 +34°C° 0 mm 7 mps 750 mmHg 40%
    19:00 +33°C° 0 mm 6 mps 750 mmHg 43%
    20:00 +32°C° 0 mm 6 mps 751 mmHg 47%
    21:00 +30°C° 0 mm 5 mps 751 mmHg 50%
    22:00 +30°C° 0 mm 5 mps 751 mmHg 53%
    23:00 +29°C° 0 mm 4 mps 751 mmHg 56%

    Tomorrow, 22 August, Wednesday

    Time Temperature Precipitation Wind Pressure Humidity
    00:00 +29°C° 0 mm 3 mps 751 mmHg 58%
    01:00 +28°C° 0 mm 3 mps 751 mmHg 61%
    02:00 +28°C° 0 mm 3 mps 751 mmHg 65%
    03:00 +27°C° 0 mm 3 mps 751 mmHg 68%
    04:00 +27°C° 0 mm 3 mps 751 mmHg 69%
    05:00 +27°C° 0 mm 3 mps 751 mmHg 71%
    06:00 +27°C° 0 mm 3 mps 751 mmHg 72%
    07:00 +28°C° 0 mm 3 mps 751 mmHg 65%
    08:00 +29°C° 0 mm 3 mps 751 mmHg 58%
    09:00 +30°C° 0 mm 3 mps 751 mmHg 52%
    10:00 +32°C° 0 mm 4 mps 751 mmHg 46%
    11:00 +34°C° 0 mm 4 mps 751 mmHg 40%
    12:00 +35°C° 0 mm 5 mps 751 mmHg 34%
    13:00 +36°C° 0 mm 5 mps 751 mmHg 34%
    14:00 +36°C° 0 mm 6 mps 751 mmHg 33%
    15:00 +36°C° 0 mm 6 mps 751 mmHg 32%
    16:00 +35°C° 0 mm 6 mps 751 mmHg 35%
    17:00 +34°C° 0 mm 6 mps 751 mmHg 37%
    18:00 +34°C° 0 mm 5 mps 751 mmHg 40%
    19:00 +33°C° 0 mm 5 mps 751 mmHg 44%
    20:00 +32°C° 0 mm 5 mps 751 mmHg 47%
    21:00 +30°C° 0 mm 4 mps 751 mmHg 50%
    22:00 +30°C° 0 mm 3 mps 752 mmHg 52%
    23:00 +29°C° 0 mm 3 mps 752 mmHg 54%

    Day after tomorrow, 23 August, Thursday

    Time Temperature Precipitation Wind Pressure Humidity
    00:00 +29°C° 0 mm 2 mps 752 mmHg 56%
    01:00 +28°C° 0 mm 2 mps 751 mmHg 60%
    02:00 +27°C° 0 mm 3 mps 751 mmHg 64%
    03:00 +27°C° 0 mm 3 mps 751 mmHg 68%
    04:00 +27°C° 0 mm 3 mps 751 mmHg 70%
    05:00 +26°C° 0 mm 2 mps 751 mmHg 71%
    06:00 +26°C° 0 mm 2 mps 751 mmHg 73%
    07:00 +28°C° 0 mm 2 mps 751 mmHg 65%
    08:00 +29°C° 0 mm 2 mps 751 mmHg 56%
    09:00 +30°C° 0 mm 2 mps 752 mmHg 48%
    10:00 +33°C° 0 mm 3 mps 752 mmHg 43%
    11:00 +34°C° 0 mm 4 mps 752 mmHg 39%
    12:00 +35°C° 0 mm 5 mps 752 mmHg 34%
    13:00 +35°C° 0 mm 5 mps 751 mmHg 33%
    14:00 +36°C° 0 mm 5 mps 751 mmHg 32%
    15:00 +36°C° 0 mm 6 mps 751 mmHg 32%
    16:00 +35°C° 0 mm 6 mps 751 mmHg 33%
    17:00 +34°C° 0 mm 5 mps 751 mmHg 35%
    18:00 +34°C° 0 mm 5 mps 751 mmHg 37%
    19:00 +33°C° 0 mm 4 mps 751 mmHg 40%
    20:00 +32°C° 0 mm 4 mps 751 mmHg 44%
    21:00 +30°C° 0 mm 3 mps 752 mmHg 48%
    22:00 +30°C° 0 mm 3 mps 752 mmHg 50%
    23:00 +29°C° 0 mm 2 mps 752 mmHg 53%

    24 August, Friday

    Time Temperature Precipitation Wind Pressure Humidity
    00:00 +28°C° 0 mm 2 mps 752 mmHg 55%
    01:00 +28°C° 0 mm 2 mps 752 mmHg 58%
    02:00 +27°C° 0 mm 2 mps 752 mmHg 62%
    03:00 +27°C° 0 mm 2 mps 752 mmHg 65%
    04:00 +27°C° 0 mm 2 mps 752 mmHg 66%
    05:00 +26°C° 0 mm 2 mps 752 mmHg 67%
    06:00 +26°C° 0 mm 1 mps 752 mmHg 69%
    07:00 +27°C° 0 mm 1 mps 752 mmHg 61%
    08:00 +29°C° 0 mm 1 mps 752 mmHg 53%
    09:00 +30°C° 0 mm 1 mps 753 mmHg 45%
    10:00 +31°C° 0 mm 2 mps 753 mmHg 40%
    11:00 +34°C° 0 mm 3 mps 752 mmHg 34%
    12:00 +35°C° 0 mm 3 mps 752 mmHg 28%
    13:00 +36°C° 0 mm 4 mps 752 mmHg 28%
    14:00 +36°C° 0 mm 5 mps 752 mmHg 27%
    15:00 +36°C° 0 mm 5 mps 751 mmHg 27%
    16:00 +35°C° 0 mm 5 mps 751 mmHg 30%
    17:00 +34°C° 0 mm 5 mps 751 mmHg 32%
    18:00 +33°C° 0 mm 5 mps 751 mmHg 35%
    19:00 +33°C° 0 mm 4 mps 752 mmHg 38%
    20:00 +32°C° 0 mm 4 mps 752 mmHg 42%
    21:00 +30°C° 0 mm 3 mps 753 mmHg 45%
    22:00 +30°C° 0 mm 3 mps 753 mmHg 47%
    23:00 +29°C° 0 mm 3 mps 752 mmHg 49%

    25 August, Saturday

    Time Temperature Precipitation Wind Pressure Humidity
    00:00 +29°C° 0 mm 3 mps 752 mmHg 52%
    01:00 +28°C° 0 mm 2 mps 752 mmHg 53%
    02:00 +28°C° 0 mm 2 mps 752 mmHg 55%
    03:00 +27°C° 0 mm 2 mps 751 mmHg 57%
    04:00 +27°C° 0 mm 2 mps 751 mmHg 57%
    05:00 +27°C° 0 mm 2 mps 751 mmHg 57%
    06:00 +27°C° 0 mm 2 mps 752 mmHg 57%
    07:00 +29°C° 0 mm 2 mps 752 mmHg 49%
    08:00 +30°C° 0 mm 1 mps 752 mmHg 40%
    09:00 +32°C° 0 mm 1 mps 752 mmHg 32%
    10:00 +35°C° 0 mm 2 mps 752 mmHg 28%
    11:00 +36°C° 0 mm 3 mps 751 mmHg 25%
    12:00 +37°C° 0 mm 3 mps 751 mmHg 21%
    13:00 +38°C° 0 mm 4 mps 751 mmHg 21%
    14:00 +38°C° 0 mm 4 mps 750 mmHg 21%
    15:00 +39°C° 0 mm 5 mps 750 mmHg 21%
    16:00 +37°C° 0 mm 5 mps 750 mmHg 23%
    17:00 +36°C° 0 mm 4 mps 749 mmHg 25%
    18:00 +36°C° 0 mm 4 mps 749 mmHg 28%
    19:00 +35°C° 0 mm 4 mps 750 mmHg 30%
    20:00 +34°C° 0 mm 4 mps 750 mmHg 32%
    21:00 +33°C° 0 mm 3 mps 750 mmHg 34%
    22:00 +33°C° 0 mm 3 mps 750 mmHg 35%
    23:00 +31°C° 0 mm 2 mps 750 mmHg 35%

    26 August, Sunday

    Time Temperature Precipitation Wind Pressure Humidity
    00:00 +31°C° 0 mm 2 mps 749 mmHg 36%
    01:00 +31°C° 0 mm 1 mps 749 mmHg 37%
    02:00 +30°C° 0 mm 1 mps 749 mmHg 37%
    03:00 +30°C° 0 mm 1 mps 749 mmHg 38%
    04:00 +29°C° 0 mm 2 mps 749 mmHg 38%
    05:00 +29°C° 0 mm 2 mps 749 mmHg 39%
    06:00 +29°C° 0 mm 2 mps 749 mmHg 39%
    07:00 +31°C° 0 mm 2 mps 749 mmHg 35%
    08:00 +34°C° 0 mm 2 mps 749 mmHg 31%
    09:00 +36°C° 0 mm 2 mps 749 mmHg 26%
    10:00 +37°C° 0 mm 3 mps 749 mmHg 24%
    11:00 +39°C° 0 mm 3 mps 749 mmHg 22%
    12:00 +41°C° 0 mm 4 mps 749 mmHg 20%
    13:00 +41°C° 0 mm 4 mps 748 mmHg 19%
    14:00 +42°C° 0 mm 5 mps 748 mmHg 19%
    15:00 +42°C° 0 mm 5 mps 748 mmHg 19%
    16:00 +41°C° 0 mm 5 mps 748 mmHg 20%
    17:00 +41°C° 0 mm 5 mps 748 mmHg 21%
    18:00 +40°C° 0 mm 4 mps 748 mmHg 22%
    19:00 +38°C° 0 mm 4 mps 748 mmHg 25%
    20:00 +37°C° 0 mm 4 mps 748 mmHg 27%
    21:00 +36°C° 0 mm 3 mps 749 mmHg 29%
    22:00 +35°C° 0 mm 3 mps 749 mmHg 30%
    23:00 +35°C° 0 mm 2 mps 749 mmHg 30%
    Show more